Location: Estes Par
(40.3770°N, 105.5210°W)
Time: 14:58:25
(UTC-06:00)

XW-2D - Visible Passes

Search period start: 18 October 2018 00:00
Search period end: 28 October 2018 00:00
Orbit: 510 x 528 km, 97.5° (Epoch: 18 October)

Date Brightness Start Highest point End Pass type
(mag) Time Alt. Az. Time Alt. Az. Time Alt. Az.
18 Oct ? 06:09:05 10° NE 06:11:40 17° E 06:14:12 10° SE visible
19 Oct ? 05:56:25 10° ENE 05:57:50 12° E 05:59:15 10° ESE visible
20 Oct ? 19:31:56 10° WSW 19:32:46 11° W 19:33:37 10° WNW visible
21 Oct ? 19:16:37 10° SW 19:18:56 16° W 19:21:18 10° NW visible
22 Oct ? 06:47:23 10° NNE 06:51:09 51° E 06:54:51 10° S visible
22 Oct ? 19:02:08 10° SSW 19:05:09 23° W 19:08:11 10° NW visible
23 Oct ? 06:33:53 10° NNE 06:37:24 34° E 06:40:54 10° SSE visible
23 Oct ? 18:47:57 10° SSW 18:51:22 33° W 18:54:50 10° NNW visible
24 Oct ? 06:20:30 10° NE 06:23:38 23° E 06:26:44 10° SSE visible
24 Oct ? 18:33:58 10° S 18:37:37 50° W 18:41:20 10° NNW visible
25 Oct ? 06:07:22 10° NE 06:09:50 16° E 06:12:17 10° SE visible
26 Oct ? 05:54:51 10° ENE 05:56:00 11° E 05:57:09 10° ESE visible
27 Oct ? 19:29:41 10° WSW 19:30:55 11° W 19:32:09 10° WNW visible
